Petaluma, CA

11:39 PM PST on November 17, 2019 (GMT -0800)
Petaluma

Weather History for KO69 - August, 2019

Change the Weather History Date:

Monday, August 19, 2019

  Actual Average (WUND) Record (WUND)
Temperature  
Mean Temperature 68 °F -  
Max Temperature 80 °F - - (-1)
Min Temperature 57 °F - - (-1)
Cooling Degree Days 4    
Growing Degree Days 18 (Base 50)    
Moisture  
Dew Point 58 °F    
Average Humidity 87    
Maximum Humidity 100    
Minimum Humidity 48    
Precipitation  
Precipitation 0.00 in - - ()
Sea Level Pressure  
Sea Level Pressure 29.96 in    
Wind  
Wind Speed 3 mph ()    
Max Wind Speed 12 mph    
Max Gust Speed 17 mph    
Visibility 8.1 miles    
Events      
Averages and records for this station are not official NWS values.
T = Trace of Precipitation, MM = Missing Value Source: Averaged Metar Reports

Daily Weather History Graph

Daily Weather History Graph

Search for Another Location

Airport or City:

Astronomy

Aug. 19, 2019 Rise Set
Actual Time 6:28 AM PDT 7:58 PM PDT
Civil Twilight 6:00 AM PDT 8:26 PM PDT
Nautical Twilight 5:27 AM PDT 9:00 PM PDT
Astronomical Twilight 4:51 AM PDT 9:35 PM PDT
Moon 10:25 PM PDT (8/19) 10:12 AM PDT (8/19)
Length of Visible Light 14h 26m
Length of Day
13h 30m
Waning Gibbous, 84% of the Moon is Illuminated
Aug 19
Waning Gibbous
Aug 23
Last Quarter
Aug 30
New
Sep 5
First Quarter
Sep 13
Full

Hourly Weather History & Observations

Time (PDT) Temp. Heat Index Dew Point Humidity Pressure Visibility Wind Dir Wind Speed Gust Speed Precip Events Conditions
12:15 AM 57.2 °F - 57.2 °F 100% 29.94 in 7.0 mi NW 3.5 mph - N/A   Overcast
12:35 AM 57.2 °F - 57.2 °F 100% 29.94 in 2.0 mi NNW 4.6 mph - N/A   Overcast
12:55 AM 57.2 °F - 57.2 °F 100% 29.94 in 9.0 mi Variable 4.6 mph - N/A   Overcast
1:15 AM 57.2 °F - 57.2 °F 100% 29.94 in 8.0 mi NW 4.6 mph - N/A   Overcast
1:35 AM 57.2 °F - 57.2 °F 100% 29.94 in 7.0 mi Calm Calm - N/A   Overcast
1:55 AM 57.2 °F - 57.2 °F 100% 29.94 in 8.0 mi NNW 4.6 mph - N/A   Overcast
2:15 AM 57.2 °F - 57.2 °F 100% 29.94 in 9.0 mi NNW 3.5 mph - N/A   Overcast
2:35 AM 57.2 °F - 57.2 °F 100% 29.94 in 8.0 mi Variable 3.5 mph - N/A   Overcast
2:55 AM 57.2 °F - 57.2 °F 100% 29.95 in 7.0 mi North 4.6 mph - N/A   Overcast
3:15 AM 57.2 °F - 57.2 °F 100% 29.95 in 8.0 mi North 5.8 mph - N/A   Overcast
3:35 AM 57.2 °F - 57.2 °F 100% 29.95 in 9.0 mi NNW 4.6 mph - N/A   Overcast
3:55 AM 57.2 °F - 57.2 °F 100% 29.95 in 7.0 mi Calm Calm - N/A   Overcast
4:15 AM 57.2 °F - 57.2 °F 100% 29.95 in 9.0 mi WSW 4.6 mph - N/A   Overcast
4:35 AM 57.2 °F - 57.2 °F 100% 29.95 in 9.0 mi West 4.6 mph - N/A   Overcast
4:55 AM 57.2 °F - 57.2 °F 100% 29.95 in 8.0 mi Calm Calm - N/A   Overcast
5:15 AM 57.2 °F - 57.2 °F 100% 29.95 in 8.0 mi SW 4.6 mph - N/A   Overcast
5:35 AM 57.2 °F - 57.2 °F 100% 29.95 in 8.0 mi Calm Calm - N/A   Overcast
5:55 AM 57.2 °F - 57.2 °F 100% 29.95 in 8.0 mi Calm Calm - N/A   Overcast
6:15 AM 57.2 °F - 57.2 °F 100% 29.95 in 9.0 mi Calm Calm - N/A   Overcast
6:35 AM 57.2 °F - 57.2 °F 100% 29.96 in 8.0 mi Calm Calm - N/A   Overcast
6:55 AM 57.2 °F - 57.2 °F 100% 29.96 in 6.0 mi Calm Calm - N/A   Overcast
7:15 AM 57.2 °F - 57.2 °F 100% 29.96 in 6.0 mi Calm Calm - N/A   Mostly Cloudy
7:35 AM 57.2 °F - 57.2 °F 100% 29.97 in 7.0 mi Calm Calm - N/A   Mostly Cloudy
7:55 AM 57.2 °F - 57.2 °F 100% 29.97 in 7.0 mi Calm Calm - N/A   Overcast
8:15 AM 57.2 °F - 57.2 °F 100% 29.97 in 8.0 mi Calm Calm - N/A   Overcast
8:35 AM 59.0 °F - 57.2 °F 94% 29.98 in 8.0 mi Calm Calm - N/A   Mostly Cloudy
8:55 AM 59.0 °F - 59.0 °F 100% 29.98 in 8.0 mi Calm Calm - N/A   Scattered Clouds
9:15 AM 59.0 °F - 59.0 °F 100% 29.98 in 8.0 mi Calm Calm - N/A   Mostly Cloudy
9:35 AM 59.0 °F - 59.0 °F 100% 29.98 in 8.0 mi Variable 4.6 mph - N/A   Mostly Cloudy
9:55 AM 60.8 °F - 57.2 °F 88% 29.99 in 8.0 mi Calm Calm - N/A   Overcast
10:15 AM 60.8 °F - 59.0 °F 94% 30.00 in 8.0 mi Calm Calm - N/A   Overcast
10:35 AM 60.8 °F - 59.0 °F 94% 30.00 in 9.0 mi Calm Calm - N/A   Overcast
10:55 AM 62.6 °F - 59.0 °F 88% 30.00 in 9.0 mi Calm Calm - N/A   Overcast
11:15 AM 62.6 °F - 57.2 °F 82% 30.00 in 9.0 mi Calm Calm - N/A   Overcast
11:35 AM 64.4 °F - 59.0 °F 83% 29.99 in 9.0 mi Calm Calm - N/A   Overcast
11:55 AM 66.2 °F - 59.0 °F 78% 29.99 in 9.0 mi Calm Calm - N/A   Mostly Cloudy
12:15 PM 69.8 °F - 59.0 °F 68% 29.99 in 10.0 mi Calm Calm - N/A   Clear
12:35 PM 69.8 °F - 59.0 °F 68% 29.98 in 9.0 mi Calm Calm - N/A   Clear
12:55 PM 71.6 °F - 59.0 °F 64% 29.97 in 10.0 mi Calm Calm - N/A   Clear
1:15 PM 73.4 °F - 59.0 °F 61% 29.97 in 9.0 mi Variable 3.5 mph - N/A   Clear
1:35 PM 75.2 °F - 59.0 °F 57% 29.96 in 9.0 mi Calm Calm - N/A   Clear
1:55 PM 75.2 °F - 59.0 °F 57% 29.96 in 10.0 mi Calm Calm - N/A   Clear
2:15 PM 75.2 °F - 59.0 °F 57% 29.96 in 9.0 mi Calm Calm - N/A   Clear
2:35 PM 78.8 °F - 59.0 °F 51% 29.96 in 7.0 mi Calm Calm - N/A   Clear
2:55 PM 78.8 °F - 59.0 °F 51% 29.95 in 8.0 mi SSE 8.1 mph - N/A   Clear
3:15 PM 80.6 °F 81.1 °F 59.0 °F 48% 29.95 in 9.0 mi West 10.4 mph - N/A   Clear
3:55 PM 77.0 °F - 60.8 °F 57% 29.95 in 9.0 mi WNW 11.5 mph - N/A   Clear
4:15 PM 75.2 °F - 60.8 °F 61% 29.95 in 9.0 mi WNW 6.9 mph 13.8 mph N/A   Clear
4:35 PM 75.2 °F - 59.0 °F 57% 29.95 in 9.0 mi WNW 6.9 mph 15.0 mph N/A   Clear
4:55 PM 73.4 °F - 59.0 °F 61% 29.95 in 9.0 mi WNW 11.5 mph - N/A   Clear
5:15 PM 71.6 °F - 59.0 °F 64% 29.96 in 9.0 mi Variable 6.9 mph 17.3 mph N/A   Clear
5:35 PM 69.8 °F - 57.2 °F 64% 29.96 in 9.0 mi WNW 10.4 mph - N/A   Clear
5:55 PM 69.8 °F - 57.2 °F 64% 29.96 in 9.0 mi WNW 9.2 mph 15.0 mph N/A   Clear
6:15 PM 68.0 °F - 57.2 °F 68% 29.96 in 9.0 mi West 10.4 mph - N/A   Clear
6:55 PM 64.4 °F - 57.2 °F 77% 29.96 in 7.0 mi West 10.4 mph - N/A   Clear
7:15 PM 62.6 °F - 57.2 °F 82% 29.96 in 8.0 mi West 9.2 mph - N/A   Clear
7:35 PM 62.6 °F - 57.2 °F 82% 29.96 in 8.0 mi West 8.1 mph - N/A   Clear
7:55 PM 62.6 °F - 57.2 °F 82% 29.96 in 7.0 mi West 6.9 mph - N/A   Clear
8:15 PM 60.8 °F - 57.2 °F 88% 29.96 in 7.0 mi WNW 8.1 mph - N/A   Partly Cloudy
8:35 PM 60.8 °F - 59.0 °F 94% 29.96 in 9.0 mi WNW 5.8 mph - N/A   Scattered Clouds
8:55 PM 60.8 °F - 59.0 °F 94% 29.97 in 9.0 mi Calm Calm - N/A   Mostly Cloudy
9:15 PM 59.0 °F - 59.0 °F 100% 29.97 in 8.0 mi Calm Calm - N/A   Unknown
9:35 PM 60.8 °F - 59.0 °F 94% 29.97 in 7.0 mi Variable 3.5 mph - N/A   Overcast
9:55 PM 60.8 °F - 59.0 °F 94% 29.98 in 7.0 mi Calm Calm - N/A   Overcast
10:15 PM 59.0 °F - 59.0 °F 100% 29.98 in 8.0 mi Calm Calm - N/A   Mostly Cloudy
10:35 PM 59.0 °F - 59.0 °F 100% 29.98 in 7.0 mi NW 3.5 mph - N/A   Unknown
10:55 PM 59.0 °F - 59.0 °F 100% 29.97 in 8.0 mi WNW 5.8 mph - N/A   Partly Cloudy
11:15 PM 59.0 °F - 59.0 °F 100% 29.98 in 8.0 mi Variable 5.8 mph - N/A   Mostly Cloudy
11:35 PM 59.0 °F - 59.0 °F 100% 29.97 in 5.0 mi WNW 5.8 mph - N/A   Overcast
11:55 PM 59.0 °F - 59.0 °F 100% 29.98 in 7.0 mi Variable 4.6 mph - N/A   Overcast